fbpx

Results

It’s not always a race, but it’s sure good to know how you did. ┬áCheck out your results below from our previous events.

Distance Position Rider Number Name Surname Start Time Finish Time Elapsed Time Elapsed Time Speed km/hr
165km 1 22 Brendan Havenga 07:00 13:35 06:35 6,58 25,06
165km 2 78 Jacques Human 07:00 13:58 06:58 6,97 23,68
165km 3 80 Damion Gomez 07:00 14:03 07:03 7,05 23,40
165km 4 65 Ivan Kruger 07:00 14:03 07:03 7,05 23,40
165km 5 84 Jason Jordaan 07:00 14:03 07:03 7,05 23,40
165km 6 66 Mandie Kruger 07:00 14:03 07:03 7,05 23,40
165km 7 23 Neil Washington 07:00 14:31 07:31 7,52 21,95
165km 8 76 Christelle Snyman 07:00 14:34 07:34 7,57 21,81
165km 9 79 Nico van der Merwe 07:00 14:34 07:34 7,57 21,81
165km 10 41 Grant Trollip 07:00 14:49 07:49 7,82 21,11
165km 11 39 Ian Halliday 07:00 14:49 07:49 7,82 21,11
165km 12 75 Ian Poole 07:00 14:49 07:49 7,82 21,11
165km 13 52 Alex Short 07:00 14:54 07:54 7,90 20,89
165km 14 59 Byron Kruger 07:00 14:54 07:54 7,90 20,89
165km 15 71 Terry Heathcote 07:00 14:59 07:59 7,98 20,67
165km 16 4 Hannes Otto 07:00 15:01 08:01 8,02 20,58
165km 17 58 Heinri Brink 07:00 15:01 08:01 8,02 20,58
165km 18 50 Otto van der Dussen 07:00 15:01 08:01 8,02 20,58
165km 19 26 Innocent Soko 07:00 15:05 08:05 8,08 20,41
165km 20 35 Anton van der Merwe 07:00 15:08 08:08 8,13 20,29
165km 21 95 Deon van Eeden 07:00 15:08 08:08 8,13 20,29
165km 22 94 Martin Nienaber 07:00 15:08 08:08 8,13 20,29
165km 23 19 Gregg Biljon 07:00 15:09 08:09 8,15 20,25
165km 24 64 Richard Proctor 07:00 15:10 08:10 8,17 20,20
165km 25 93 Brett McKenzie 07:00 15:29 08:29 8,48 19,45
165km 26 5 Stoffel Eckley 07:00 15:29 08:29 8,48 19,45
165km 27 27 Salva Tizzone 07:00 15:40 08:40 8,67 19,04
165km 28 45 Chantelle Fourie 07:00 15:43 08:43 8,72 18,93
165km 29 46 Fredie Fourie 07:00 15:43 08:43 8,72 18,93
165km 30 8 Samantha Summerscale 07:00 15:43 08:43 8,72 18,93
165km 31 30 Dylan Edel 07:00 15:45 08:45 8,75 18,86
165km 32 24 Maretha Bezuidenhout 07:00 15:45 08:45 8,75 18,86
165km 33 82 Richard Baxter 07:00 15:45 08:45 8,75 18,86
165km 34 48 Mahube Podile 07:00 15:47 08:47 8,78 18,79
165km 35 12 Dom Von Pannier 07:00 15:50 08:50 8,83 18,68
165km 36 2 Mike van Til 07:00 15:50 08:50 8,83 18,68
165km 37 96 Wesley Drake 07:00 15:50 08:50 8,83 18,68
165km 38 20 Wouter Nigrini 07:00 15:50 08:50 8,83 18,68
165km 39 63 Edgar Krisch 07:00 15:57 08:57 8,95 18,44
165km 40 47 Richard Maddern 07:00 15:57 08:57 8,95 18,44
165km 41 42 Muzi Manana 07:00 16:02 09:02 9,03 18,27
165km 42 44 Ray Cranston 07:00 16:08 09:08 9,13 18,07
165km 43 69 Frans Fourie 07:00 16:30 09:30 9,50 17,37
165km 44 73 Leigh Weightman 07:00 16:30 09:30 9,50 17,37
165km 45 21 Werner Gibson 07:00 16:30 09:30 9,50 17,37
165km 46 6 Maieane Nkhahle 07:00 16:40 09:40 9,67 17,07
165km 47 17 Phenyo Mathopa 07:00 16:50 09:50 9,83 16,78
165km 48 74 Anine Jordaan 07:00 DNF DNF DNF DNF
165km 49 31 Anthea Chittenden 07:00 DNF DNF DNF DNF
165km 50 67 Anton Myburgh 07:00 DNF DNF DNF DNF
165km 51 43 Bennie Janse van Rensburg 07:00 DNF DNF DNF DNF
165km 52 53 David Rossouw 07:00 DNF DNF DNF DNF
165km 53 1 Heather Horrocks 07:00 DNF DNF DNF DNF
165km 54 49 Jacques De Villiers 07:00 DNF DNF DNF DNF
165km 55 16 Jaun Geyser 07:00 DNF DNF DNF DNF
165km 56 81 Jeandre Koen 07:00 DNF DNF DNF DNF
165km 57 86 Jonathan Boyer 07:00 DNF DNF DNF DNF
165km 58 89 Karlin Pather 07:00 DNF DNF DNF DNF
165km 59 51 Koenehelo Thejane 07:00 DNF DNF DNF DNF
165km 60 33 Lesego Ntlele 07:00 DNF DNF DNF DNF
165km 61 32 Matthew Chittenden 07:00 DNF DNF DNF DNF
165km 62 62 Michelle Griessel 07:00 DNF DNF DNF DNF
165km 63 102 Morne Prinsloor 07:00 DNF DNF DNF DNF
165km 64 54 Nathaniel Chidavaenzi 07:00 DNF DNF DNF DNF
165km 65 90 Nevan Pillay 07:00 DNF DNF DNF DNF
165km 66 57 Aleida Stoltz DNS DNS DNS DNS DNS
165km 67 14 Bino Etsebeth DNS DNS DNS DNS DNS
165km 68 77 Gert Pienaar DNS DNS DNS DNS DNS
165km 69 18 Tony Lederle DNS DNS DNS DNS DNS
165km 70 15 Warren Hauser DNS DNS DNS DNS DNS
165km 71 56 Wouter Stoltz DNS DNS DNS DNS DNS